This demonstration page uses our WeatherBlox Daily Observations layout. Learn more.

Left ArrowRight Arrow

Hourly Observations for June 14, 2017

Temp ( °F °C ) Dew Point ( °F °C ) Humidity (%) Winds ( mph kmh ) Pressure ( in mb ) Visibility ( mi km ) Precip ( " mm )
12:53 am 00:53 Clear 76 24.4 70 21.1 82 82 Calm 30.04 1017 10 16 0.00 0.00
1:53 am 01:53 Clear 72 22.2 71 21.7 97 97 Calm 30.03 1017 10 16 0.00 0.00
2:53 am 02:53 Clear 74 23.3 70 21.1 88 88 SSW 3 6 30.01 1016 10 16 0.00 0.00
3:53 am 03:53 Clear 72 22.2 70 21.1 94 94 Calm 30.00 1016 10 16 0.00 0.00
4:53 am 04:53 Cloudy 72 22.2 70 21.1 94 94 SSW 3 6 30.01 1016 10 16 0.00 0.00
5:53 am 05:53 Partly Cloudy 70 21.1 70 21.1 100 100 NW 3 6 30.01 1016 10 16 0.00 0.00
6:53 am 06:53 Sunny 71 21.7 70 21.1 96 96 Calm 30.04 1017 10 16 0.00 0.00
7:53 am 07:53 Partly Cloudy 74 23.3 71 21.7 91 91 Calm 30.06 1018 10 16 0.00 0.00
7:58 am 07:58 Mostly Cloudy 75 23.9 71 21.7 88 88 Calm 30.06 1018 10 16 0.00 0.00
8:53 am 08:53 Mostly Cloudy 76 24.4 72 22.2 88 88 Calm 30.07 1018 10 16 0.00 0.00
9:53 am 09:53 Sunny 81 27.2 72 22.2 74 74 VRB 3 6 30.07 1018 10 16 0.00 0.00
10:53 am 10:53 Partly Cloudy 83 28.3 71 21.7 67 67 N 6 9 30.07 1018 10 16 0.00 0.00
11:53 am 11:53 Mostly Cloudy 83 28.3 69 20.6 63 63 VRB 5 7 30.06 1018 10 16 0.00 0.00
12:53 pm 12:53 Mostly Cloudy 84 28.9 69 20.6 61 61 Calm 30.04 1017 10 16 0.00 0.00
1:53 pm 13:53 Partly Cloudy 85 29.4 70 21.1 61 61 Calm 30.03 1017 10 16 0.00 0.00
2:53 pm 14:53 Mostly Sunny 88 31.1 71 21.7 57 57 SSW 7 11 30.00 1016 10 16 0.00 0.00
3:53 pm 15:53 Mostly Cloudy 86 30 70 21.1 59 59 SW 6 9 29.99 1016 10 16 0.00 0.00
4:53 pm 16:53 Mostly Cloudy 88 31.1 69 20.6 54 54 W 6 9 29.96 1015 10 16 0.00 0.00
5:53 pm 17:53 Partly Cloudy with Nearby Thunderstorms 87 30.6 70 21.1 57 57 SSW 7 11 29.96 1015 10 16 0.00 0.00
6:12 pm 18:12 Partly Cloudy 88 31.1 70 21.1 55 55 SW 5 7 29.94 1014 10 16 0.00 0.00
6:53 pm 18:53 Partly Cloudy 88 31.1 70 21.1 55 55 WSW 7 11 29.96 1015 10 16 0.00 0.00
7:43 pm 19:43 Partly Cloudy with Nearby Thunderstorms 86 30 70 21.1 59 59 SW 7 11 29.97 1015 10 16 0.00 0.00
7:53 pm 19:53 Mostly Cloudy with Thunderstorms 86 30 70 21.1 59 59 SW 6 9 29.97 1015 10 16 0.00 0.00
8:00 pm 20:00 Mostly Cloudy with Nearby Thunderstorms 86 30 70 21.1 59 59 SW 6 9 29.97 1015 10 16 0.00 0.00
8:53 pm 20:53 Cloudy with Strong Thunderstorms 72 22.2 68 20 87 87 NNE 16 26 30.00 1016 4 6 0.12 3.05
9:53 pm 21:53 Mostly Cloudy with Thunderstorms 71 21.7 69 20.6 94 94 SSE 3 6 30.01 1016 10 16 0.03 0.76
10:00 pm 22:00 Mostly Cloudy with Nearby Thunderstorms 72 22.2 69 20.6 91 91 SSE 5 7 30.00 1016 10 16 0.00 0.03
10:37 pm 22:37 Mostly Cloudy with Thunderstorms 71 21.7 70 21.1 96 96 SSW 3 6 30.00 1016 10 16 0.00 0.03
10:53 pm 22:53 Cloudy with Thunderstorms 72 22.2 70 21.1 94 94 SSW 5 7 30.00 1016 9 14 0.02 0.51
11:03 pm 23:03 Cloudy with Rain 71 21.7 70 21.1 96 96 NNW 10 17 30.00 1016 5 8 0.04 1.02
11:53 pm 23:53 Mostly Clear 71 21.7 71 21.7 100 100 ESE 6 9 30.01 1016 10 16 0.07 1.78

Powered by AerisWeather